{"data":{"norad_id":52344,"epoch":"2026-05-25T05:19:38.773056Z","epoch_age_seconds":59790,"freshness":"FRESH","line1":"1 52344U 22045P   26145.22197654 -.00000939  00000+0 -40933-4 0  9990","line2":"2 52344  53.2120 215.6218 0000927  81.6881 278.4216 15.08839509227333","mean_motion":15.08839509,"eccentricity":9.27e-5,"inclination_deg":53.212,"raan_deg":215.6218,"arg_perigee_deg":81.6881,"mean_anomaly_deg":278.4216,"bstar":-4.0933e-5,"rev_number":22733,"period_min":95.43758573464,"perigee_km":539.1036021039,"apogee_km":540.38617740626,"semimajor_km":6917.8818897551,"source":"CELESTRAK","updated_at":"2026-05-25T13:38:17.115017Z"}}